Change the Weather History Date:

Tuesday, February 12, 2013

  Actual Average Record
Temperature  
Mean Temperature 36 °F -  
Max Temperature 43 °F 41 °F 71 °F (1999)
Min Temperature 28 °F 20 °F 1 °F (2014)
Degree Days  
Heating Degree Days 30    
Moisture  
Dew Point 24 °F    
Average Humidity 58    
Maximum Humidity 75    
Minimum Humidity 47    
Precipitation  
Precipitation 0.00 in - - ()
Sea Level Pressure  
Sea Level Pressure 29.93 in    
Wind  
Wind Speed 10 mph (NW)    
Max Wind Speed 22 mph    
Max Gust Speed 30 mph    
Visibility 10 miles    
Events      
Averages and records for this station are not official NWS values.
T = Trace of Precipitation, MM = Missing Value Source: NWS Daily Summary

Daily Weather History Graph

Daily Weather History Graph

Search for Another Location

Airport or City:

Trip Planner

Search our weather history database for the weather conditions in past years. The results will help you decide how hot, cold, wet, or windy it might be!

Date:

Astronomy

Feb. 12, 2013 Rise Set
Actual Time 7:01 AM EST 5:37 PM EST
Civil Twilight 6:33 AM EST 6:05 PM EST
Nautical Twilight 6:01 AM EST 6:37 PM EST
Astronomical Twilight 5:30 AM EST 7:09 PM EST
Moon 7:57 AM EST (2/12) 8:36 PM EST (2/12)
Length of Visible Light 11h 31m
Length of Day
10h 36m
Waxing Crescent, 7% of the Moon is Illuminated
Feb 12
Waxing Crescent
Feb 17
First Quarter
Feb 25
Full
Mar 4
Last Quarter
Mar 11
New

Hourly Weather History & Observations

Time (EST) Temp. Windchill Dew Point Humidity Pressure Visibility Wind Dir Wind Speed Gust Speed Precip Events Conditions
12:53 AM 37.0 °F 31.6 °F 28.0 °F 70% 29.80 in 10.0 mi West 6.9 mph - N/A   Clear
1:53 AM 37.9 °F 33.5 °F 27.0 °F 65% 29.82 in 10.0 mi WNW 5.8 mph - N/A   Mostly Cloudy
2:53 AM 39.0 °F 31.8 °F 26.1 °F 60% 29.83 in 10.0 mi WNW 11.5 mph - N/A   Mostly Cloudy
3:53 AM 39.0 °F 30.6 °F 26.1 °F 60% 29.85 in 10.0 mi WNW 15.0 mph - N/A   Overcast
4:53 AM 39.0 °F 31.4 °F 25.0 °F 57% 29.86 in 10.0 mi WNW 12.7 mph - N/A   Overcast
5:53 AM 39.0 °F 30.3 °F 25.0 °F 57% 29.86 in 10.0 mi WNW 16.1 mph - N/A   Overcast
7:53 AM 39.0 °F 31.0 °F 25.0 °F 57% 29.92 in 10.0 mi WNW 13.8 mph - N/A   Overcast
8:53 AM 39.9 °F 32.5 °F 25.0 °F 55% 29.94 in 10.0 mi WNW 12.7 mph - N/A   Overcast
9:53 AM 42.1 °F 33.9 °F 25.0 °F 51% 29.96 in 10.0 mi WNW 17.3 mph - N/A   Mostly Cloudy
10:53 AM 39.9 °F 30.0 °F 25.0 °F 55% 29.98 in 10.0 mi WNW 21.9 mph 28.8 mph N/A   Mostly Cloudy
11:53 AM 42.1 °F 34.2 °F 25.0 °F 51% 29.99 in 10.0 mi WNW 16.1 mph 25.3 mph N/A   Partly Cloudy
12:53 PM 43.0 °F 35.4 °F 25.0 °F 49% 29.98 in 10.0 mi WNW 16.1 mph 21.9 mph N/A   Mostly Cloudy
1:53 PM 43.0 °F 34.5 °F 24.1 °F 47% 29.96 in 10.0 mi WNW 19.6 mph 29.9 mph N/A   Clear
2:53 PM 43.0 °F 35.4 °F 25.0 °F 49% 29.94 in 10.0 mi NW 16.1 mph 26.5 mph N/A   Clear
3:53 PM 42.1 °F 36.6 °F 23.0 °F 47% 29.90 in 10.0 mi NNW 9.2 mph - N/A   Clear
4:53 PM 39.9 °F 33.9 °F 23.0 °F 51% 29.98 in 10.0 mi WNW 9.2 mph - N/A   Clear
5:53 PM 37.0 °F 32.4 °F 21.9 °F 54% 29.98 in 10.0 mi NNW 5.8 mph - N/A   Clear
6:53 PM 34.0 °F 28.8 °F 23.0 °F 64% 29.99 in 10.0 mi North 5.8 mph - N/A   Clear
7:53 PM 32.0 °F 28.7 °F 23.0 °F 69% 29.98 in 10.0 mi NNW 3.5 mph - N/A   Clear
8:53 PM 34.0 °F - 21.9 °F 61% 29.95 in 10.0 mi Calm Calm - N/A   Clear
9:53 PM 32.0 °F - 21.9 °F 66% 29.96 in 10.0 mi Calm Calm - N/A   Clear
10:53 PM 28.9 °F - 21.9 °F 75% 29.97 in 8.0 mi Calm Calm - N/A   Clear
11:53 PM 30.0 °F - 21.9 °F 72% 29.97 in 8.0 mi Calm Calm - N/A   Clear